Weather History for KSLB - January, 2015

Change the Weather History Date:

Friday, January 30, 2015

  Actual Average (KSPW) Record (KSPW)
Temperature  
Mean Temperature 24 °F -  
Max Temperature 35 °F 26 °F - (-1)
Min Temperature 12 °F 6 °F - (-1)
Degree Days  
Heating Degree Days 42    
Moisture  
Dew Point 19 °F    
Average Humidity 83    
Maximum Humidity 93    
Minimum Humidity 65    
Precipitation  
Precipitation 0.00 in - - ()
Sea Level Pressure  
Sea Level Pressure 30.39 in    
Wind  
Wind Speed 10 mph (South)    
Max Wind Speed 17 mph    
Max Gust Speed 21 mph    
Visibility 10 miles    
Events      
Averages and records for this station are not official NWS values.
T = Trace of Precipitation, MM = Missing Value Source: NWS Daily Summary

Daily Weather History Graph

Daily Weather History Graph

Search for Another Location

Airport or City:

Trip Planner

Search our weather history database for the weather conditions in past years. The results will help you decide how hot, cold, wet, or windy it might be!

Date:

Astronomy

Jan. 30, 2015 Rise Set
Actual Time 7:37 AM CST 5:31 PM CST
Civil Twilight 7:07 AM CST 6:01 PM CST
Nautical Twilight 6:33 AM CST 6:35 PM CST
Astronomical Twilight 6:00 AM CST 7:08 PM CST
Moon 2:06 PM CST (1/30) 4:07 AM CST (1/30)
Length of Visible Light 10h 54m
Length of Day
9h 54m
Waxing Gibbous, 84% of the Moon is Illuminated
Jan 30
Waxing Gibbous
Feb 3
Full
Feb 11
Last Quarter
Feb 18
New
Feb 25
First Quarter

Hourly Weather History & Observations

Time (CST) Temp. Windchill Dew Point Humidity Pressure Visibility Wind Dir Wind Speed Gust Speed Precip Events Conditions
12:15 AM 19.4 °F 7.9 °F 17.6 °F 93% 30.53 in 10.0 mi North 10.4 mph - N/A   Clear
12:35 AM 19.4 °F 6.6 °F 15.8 °F 86% 30.53 in 10.0 mi North 12.7 mph - N/A   Clear
12:55 AM 19.4 °F 8.6 °F 15.8 °F 86% 30.53 in 10.0 mi North 9.2 mph - N/A   Clear
1:15 AM 19.4 °F 8.6 °F 15.8 °F 86% 30.52 in 10.0 mi North 9.2 mph - N/A   Clear
1:35 AM 17.6 °F 8.2 °F 15.8 °F 93% 30.52 in 10.0 mi North 6.9 mph - N/A   Clear
1:55 AM 17.6 °F 7.3 °F 15.8 °F 93% 30.52 in 10.0 mi North 8.1 mph - N/A   Clear
2:15 AM 17.6 °F 8.2 °F 15.8 °F 93% 30.52 in 10.0 mi NNE 6.9 mph - N/A   Clear
2:35 AM 17.6 °F 8.2 °F 14.0 °F 86% 30.52 in 10.0 mi NNE 6.9 mph - N/A   Clear
2:55 AM 17.6 °F 7.3 °F 14.0 °F 86% 30.52 in 10.0 mi NNE 8.1 mph - N/A   Clear
3:15 AM 17.6 °F 7.3 °F 14.0 °F 86% 30.51 in 10.0 mi NNE 8.1 mph - N/A   Clear
3:35 AM 17.6 °F 7.3 °F 14.0 °F 86% 30.51 in 10.0 mi NE 8.1 mph - N/A   Clear
3:55 AM 15.8 °F 7.2 °F 14.0 °F 93% 30.52 in 10.0 mi NE 5.8 mph - N/A   Clear
4:15 AM 15.8 °F 6.1 °F 12.2 °F 86% 30.51 in 10.0 mi NNE 6.9 mph - N/A   Clear
4:35 AM 15.8 °F 8.6 °F 12.2 °F 86% 30.52 in 10.0 mi NNE 4.6 mph - N/A   Clear
4:55 AM 15.8 °F 10.2 °F 12.2 °F 86% 30.52 in 10.0 mi NE 3.5 mph - N/A   Clear
5:15 AM 14.0 °F - 12.2 °F 93% 30.51 in 10.0 mi Calm Calm - N/A   Clear
5:35 AM 14.0 °F 8.2 °F 10.4 °F 86% 30.50 in 10.0 mi East 3.5 mph - N/A   Clear
5:55 AM 12.2 °F 4.3 °F 10.4 °F 92% 30.50 in 10.0 mi East 4.6 mph - N/A   Clear
6:15 AM 12.2 °F 6.1 °F 10.4 °F 92% 30.50 in 10.0 mi ESE 3.5 mph - N/A   Clear
6:35 AM 12.2 °F 4.3 °F 10.4 °F 92% 30.49 in 10.0 mi ESE 4.6 mph - N/A   Clear
6:55 AM 12.2 °F - 10.4 °F 92% 30.49 in 10.0 mi Calm Calm - N/A   Clear
7:15 AM 12.2 °F 2.9 °F 10.4 °F 92% 30.49 in 10.0 mi ESE 5.8 mph - N/A   Clear
7:35 AM 12.2 °F 2.9 °F 10.4 °F 92% 30.49 in 10.0 mi East 5.8 mph - N/A   Clear
7:55 AM 12.2 °F 6.1 °F 10.4 °F 92% 30.50 in 10.0 mi SE 3.5 mph - N/A   Clear
8:15 AM 14.0 °F 8.2 °F 12.2 °F 93% 30.51 in 10.0 mi SE 3.5 mph - N/A   Clear
8:35 AM 15.8 °F 6.1 °F 14.0 °F 93% 30.50 in 10.0 mi SE 6.9 mph - N/A   Clear
8:55 AM 17.6 °F 6.4 °F 14.0 °F 86% 30.50 in 10.0 mi SSE 9.2 mph - N/A   Clear
9:15 AM 17.6 °F 6.4 °F 14.0 °F 86% 30.51 in 10.0 mi SSE 9.2 mph - N/A   Clear
9:35 AM 17.6 °F 6.4 °F 14.0 °F 86% 30.50 in 10.0 mi SSE 9.2 mph - N/A   Clear
9:55 AM 19.4 °F 6.6 °F 14.0 °F 80% 30.50 in 10.0 mi South 12.7 mph - N/A   Clear
10:15 AM 19.4 °F 7.2 °F 15.8 °F 86% 30.49 in 10.0 mi South 11.5 mph - N/A   Clear
10:35 AM 21.2 °F 9.5 °F 15.8 °F 80% 30.49 in 10.0 mi South 11.5 mph - N/A   Clear
10:55 AM 23.0 °F 12.4 °F 17.6 °F 80% 30.48 in 10.0 mi South 10.4 mph - N/A   Clear
11:15 AM 23.0 °F 11.7 °F 17.6 °F 80% 30.47 in 10.0 mi South 11.5 mph - N/A   Clear
11:35 AM 24.8 °F 14.0 °F 19.4 °F 80% 30.45 in 10.0 mi South 11.5 mph - N/A   Clear
11:55 AM 26.6 °F 15.7 °F 19.4 °F 74% 30.44 in 10.0 mi SSW 12.7 mph 20.7 mph N/A   Clear
12:15 PM 28.4 °F 17.0 °F 21.2 °F 74% 30.43 in 10.0 mi SSW 15.0 mph - N/A   Clear
12:35 PM 28.4 °F 18.5 °F 21.2 °F 74% 30.41 in 10.0 mi SSW 11.5 mph 18.4 mph N/A   Clear
12:55 PM 30.2 °F 20.8 °F 21.2 °F 69% 30.40 in 10.0 mi South 11.5 mph 17.3 mph N/A   Clear
1:15 PM 30.2 °F 20.8 °F 23.0 °F 75% 30.38 in 10.0 mi South 11.5 mph - N/A   Clear
1:35 PM 32.0 °F 21.6 °F 23.0 °F 69% 30.36 in 10.0 mi SSW 15.0 mph - N/A   Clear
1:55 PM 32.0 °F 23.0 °F 23.0 °F 69% 30.35 in 10.0 mi South 11.5 mph - N/A   Clear
2:15 PM 32.0 °F 23.0 °F 23.0 °F 69% 30.34 in 10.0 mi SSW 11.5 mph - N/A   Clear
2:35 PM 33.8 °F 24.8 °F 23.0 °F 65% 30.34 in 10.0 mi South 12.7 mph - N/A   Clear
2:55 PM 33.8 °F 25.3 °F 24.8 °F 70% 30.34 in 10.0 mi South 11.5 mph - N/A   Clear
3:15 PM 33.8 °F 23.9 °F 24.8 °F 70% 30.32 in 10.0 mi South 15.0 mph - N/A   Clear
3:35 PM 35.6 °F 25.9 °F 24.8 °F 65% 30.31 in 10.0 mi South 16.1 mph - N/A   Clear
3:55 PM 33.8 °F 23.9 °F 24.8 °F 70% 30.31 in 10.0 mi South 15.0 mph - N/A   Clear
4:15 PM 33.8 °F 23.9 °F 24.8 °F 70% 30.30 in 10.0 mi South 15.0 mph - N/A   Clear
4:35 PM 33.8 °F 23.9 °F 24.8 °F 70% 30.29 in 10.0 mi South 15.0 mph - N/A   Clear
4:55 PM 33.8 °F 24.8 °F 24.8 °F 70% 30.29 in 10.0 mi South 12.7 mph - N/A   Clear
5:15 PM 32.0 °F 22.5 °F 24.8 °F 75% 30.28 in 10.0 mi South 12.7 mph - N/A   Clear
5:35 PM 32.0 °F 22.5 °F 24.8 °F 75% 30.28 in 10.0 mi South 12.7 mph - N/A   Clear
5:55 PM 30.2 °F 20.2 °F 24.8 °F 80% 30.26 in 10.0 mi South 12.7 mph - N/A   Clear
6:15 PM 30.2 °F 21.3 °F 24.8 °F 80% 30.26 in 10.0 mi South 10.4 mph - N/A   Clear
6:35 PM 30.2 °F 20.2 °F 24.8 °F 80% 30.25 in 10.0 mi South 12.7 mph - N/A   Clear
6:55 PM 30.2 °F 19.3 °F 24.8 °F 80% 30.24 in 10.0 mi South 15.0 mph - N/A   Clear
7:15 PM 30.2 °F 19.3 °F 24.8 °F 80% 30.23 in 10.0 mi South 15.0 mph - N/A   Clear
7:35 PM 30.2 °F 18.5 °F 24.8 °F 80% 30.22 in 10.0 mi SSW 17.3 mph - N/A   Clear
7:55 PM 28.4 °F 16.2 °F 24.8 °F 86% 30.22 in 10.0 mi SSW 17.3 mph - N/A   Clear
8:15 PM 28.4 °F 16.2 °F 24.8 °F 86% 30.22 in 10.0 mi SSW 17.3 mph - N/A   Clear
8:35 PM 28.4 °F 17.5 °F 24.8 °F 86% 30.22 in 10.0 mi SSW 13.8 mph - N/A   Clear
8:55 PM 28.4 °F 17.0 °F 24.8 °F 86% 30.23 in 10.0 mi SSW 15.0 mph - N/A   Clear
9:15 PM 26.6 °F 17.5 °F 24.8 °F 93% 30.23 in 10.0 mi SSW 9.2 mph - N/A   Clear
9:35 PM 26.6 °F 16.2 °F 24.8 °F 93% 30.22 in 10.0 mi SSW 11.5 mph - N/A   Clear
9:55 PM 28.4 °F 18.0 °F 24.8 °F 86% 30.22 in 10.0 mi SSW 12.7 mph - N/A   Clear
10:15 PM 28.4 °F 18.0 °F 24.8 °F 86% 30.21 in 10.0 mi SSW 12.7 mph - N/A   Clear
10:35 PM 28.4 °F 18.0 °F 24.8 °F 86% 30.20 in 10.0 mi SSW 12.7 mph - N/A   Clear
10:55 PM 28.4 °F 18.5 °F 24.8 °F 86% 30.19 in 10.0 mi SSW 11.5 mph - N/A   Clear
11:15 PM 28.4 °F 19.1 °F 24.8 °F 86% 30.19 in 10.0 mi SSW 10.4 mph - N/A   Clear
11:35 PM 28.4 °F 19.7 °F 24.8 °F 86% 30.19 in 10.0 mi SW 9.2 mph - N/A   Clear
11:55 PM 30.2 °F 19.8 °F 24.8 °F 80% 30.18 in 10.0 mi SW 13.8 mph - N/A   Clear